Regional Weather Roundup
Issued by NWS

Home | Current Version | Previous Version | Text Only | Print | Product List | Glossary Off
Versions: 1 2 3 4 5 6 7 8 9 10 11 12 13 14 15 16 17 18 19 20 21 22 23 24 25 26 27 28 29 30 31 32 33 34 35 36 37 38 39 40 41 42 43 44 45 46 47 48 49 50

560
ASUS43 KTOP 250208
RWRKS

WEATHER ROUNDUP FOR KANSAS
NATIONAL WEATHER SERVICE GOODLAND KS
900 PM CDT SAT JUN 24 2017

NOTE:  "FAIR" INDICATES FEW OR NO CLOUDS BELOW 12,000 FEET WITH NO
SIGNIFICANT WEATHER AND/OR OBSTRUCTIONS TO VISIBILITY.

KSZ001>006-013>018-027>032-041>047-250300-
NORTHWEST KANSAS

CITY           SKY/WX    TMP DP  RH WIND       PRES   REMARKS
GOODLAND       CLOUDY    69  55  60 E8        30.24R
HAYS           CLOUDY    72  53  51 E9        30.21R
HILL CITY      CLOUDY    71  50  47 NE6       30.24R
RUSSELL        CLOUDY    72  50  45 NE8       30.20R
$$

KSZ061>065-074>080-084>089-250300-
SOUTHWEST KANSAS

CITY           SKY/WX    TMP DP  RH WIND       PRES   REMARKS
DODGE CITY     CLOUDY    72  56  57 SE6       30.22R
ELKHART          N/A     68  49  50 S5          N/A
GARDEN CITY    CLOUDY    74  51  44 E6        30.22R
GREAT BEND     CLOUDY    76  53  44 NE9       30.20R
LIBERAL        PTCLDY    73  55  53 S6        30.21R
PRATT          CLOUDY    73  50  44 SW5       30.21R
$$

KSZ066>073-081>083-090>101-250300-
SOUTHEAST KANSAS

CITY           SKY/WX    TMP DP  RH WIND       PRES   REMARKS
CHANUTE        MOCLDY    73  45  36 E5        30.19R
COFFEYVILLE    CLEAR     70  51  51 NE5       30.18R
HUTCHINSON     MOCLDY    76  52  43 NE8       30.19R
MEDICINE LODGE   N/A     78  52  40 CALM      30.18R
NEWTON         CLEAR     73  52  47 SE3       30.20R
PARSONS        PTCLDY    66  54  65 CALM      30.20R
WICHITA INTL   PTCLDY    75  54  47 E7        30.18R
WICHITA JABRA  CLEAR     71  54  54 E5        30.19R
WINFIELD       CLEAR     76  54  46 E5        30.20R
$$

KSZ007>012-019>026-033>040-048>060-102>105-250300-
NORTHEAST KANSAS

CITY           SKY/WX    TMP DP  RH WIND       PRES   REMARKS
CONCORDIA      LGT RAIN  70  51  51 CALM      30.20R
EMPORIA        CLEAR     69  49  48 NE7       30.19R
LAWRENCE       PTCLDY    67  59  75 CALM      30.16S
MANHATTAN      CLOUDY    71  55  56 CALM      30.18R
MARYSVILLE     CLOUDY    70  46  43 CALM      30.19R
OLATHE IND     CLOUDY    73  46  38 CALM      30.18S
OLATHE EXE     CLOUDY    74  44  34 CALM      30.17S
SALINA         CLOUDY    78  42  27 NE9       30.19R
TOPEKA BILLARD CLOUDY    74  47  38 W3        30.17R
TOPEKA FORBES  CLOUDY    71  51  49 W3        30.17S
$$




USA.gov is the U.S. government's official web portal to all federal, state and local government web resources and services.